UAL131 PTPN-PKMJ

Flight info

Callsign UAL131
Flight time N/A
Altitude 39000
Route PNI STEFF MAJ
Aircraft B38M/M-SDE1FGHILORVWXY/HB1

Departure

Time 2026-04-30 14:47
Airport Pohnpei International Airport (PTPN)

Arrival

Time N/A
Airport Marshall Islands International Airport (PKMJ)
Time Latitude Longitude Altitude Speed Heading
2026-04-30 14:25 6.98197 158.20395 20 ft 0 kts 178°
2026-04-30 14:39 6.98209 158.20395 20 ft 4 kts 178°
2026-04-30 14:39 6.98234 158.20394 22 ft 2 kts 178°
2026-04-30 14:39 6.98255 158.20388 23 ft 4 kts 127°
2026-04-30 14:40 6.98268 158.20345 23 ft 4 kts 72°
2026-04-30 14:40 6.98264 158.20327 21 ft 0 kts 89°
2026-04-30 14:44 6.98264 158.20335 22 ft 4 kts 87°
2026-04-30 14:44 6.98302 158.20361 20 ft 10 kts 359°
2026-04-30 14:44 6.98371 158.20358 19 ft 9 kts
2026-04-30 14:45 6.98437 158.20358 20 ft 10 kts 359°
2026-04-30 14:45 6.98506 158.20335 19 ft 13 kts 300°
2026-04-30 14:45 6.98514 158.20232 19 ft 16 kts 271°
2026-04-30 14:45 6.98475 158.20130 20 ft 16 kts 244°
2026-04-30 14:46 6.98511 158.20086 20 ft 7 kts 33°
2026-04-30 14:46 6.98515 158.20099 20 ft 0 kts 90°
2026-04-30 14:47 6.98515 158.20241 19 ft 61 kts 90°
2026-04-30 14:47 6.98511 158.20957 20 ft 141 kts 90°
2026-04-30 14:47 6.98509 158.22129 331 ft 184 kts 90°
2026-04-30 14:47 6.98523 158.23412 1463 ft 175 kts 89°
2026-04-30 14:48 6.98538 158.24681 2344 ft 193 kts 90°
2026-04-30 14:48 6.98554 158.26117 2996 ft 217 kts 90°
2026-04-30 14:48 6.98569 158.27714 3651 ft 239 kts 90°
2026-04-30 14:48 6.98584 158.29453 4444 ft 257 kts 90°
2026-04-30 14:49 6.98598 158.31305 5301 ft 270 kts 90°
2026-04-30 14:49 6.98613 158.33215 6328 ft 275 kts 90°
2026-04-30 14:49 6.98628 158.35161 7278 ft 281 kts 90°
2026-04-30 14:49 6.98642 158.37143 8253 ft 285 kts 89°
2026-04-30 14:50 6.98672 158.41208 10121 ft 296 kts 90°
2026-04-30 14:50 6.98687 158.43340 10746 ft 313 kts 90°
2026-04-30 14:51 6.98719 158.47897 12295 ft 332 kts 90°
2026-04-30 14:51 6.98735 158.50237 13208 ft 338 kts 90°
2026-04-30 14:51 6.98769 158.55032 14665 ft 346 kts 90°
2026-04-30 14:52 6.98786 158.57466 15370 ft 349 kts 90°
2026-04-30 14:52 6.98820 158.62400 16747 ft 356 kts 90°
2026-04-30 14:52 6.98836 158.64778 17375 ft 359 kts 90°
2026-04-30 14:53 6.98870 158.69849 18602 ft 366 kts 90°
2026-04-30 14:53 6.98886 158.72420 19157 ft 368 kts 90°
2026-04-30 14:54 6.98920 158.77621 20248 ft 374 kts 90°
2026-04-30 14:54 6.98954 158.82887 21302 ft 379 kts 90°
2026-04-30 14:55 6.98988 158.88228 22330 ft 384 kts 90°
2026-04-30 14:55 6.99004 158.90927 22833 ft 387 kts 90°
2026-04-30 14:55 6.99037 158.96342 23756 ft 392 kts 90°
2026-04-30 14:56 6.99070 159.01860 24576 ft 396 kts 90°
2026-04-30 14:56 6.99103 159.07441 25388 ft 401 kts 90°
2026-04-30 14:57 6.99119 159.10250 25773 ft 403 kts 90°
2026-04-30 14:57 6.99152 159.15932 26568 ft 408 kts 90°
2026-04-30 14:58 6.99184 159.21683 27335 ft 413 kts 90°
2026-04-30 14:58 6.99200 159.24575 27717 ft 415 kts 90°
2026-04-30 14:58 6.99231 159.30414 28451 ft 419 kts 90°
2026-04-30 14:59 6.99262 159.36318 29164 ft 424 kts 90°
2026-04-30 15:00 6.99308 159.45254 30140 ft 431 kts 90°
2026-04-30 15:00 6.99338 159.51312 30700 ft 435 kts 90°
2026-04-30 15:01 6.99367 159.57429 31239 ft 439 kts 90°
2026-04-30 15:01 6.99382 159.60507 31508 ft 441 kts 90°
2026-04-30 15:01 6.99411 159.66714 32038 ft 445 kts 90°
2026-04-30 15:02 6.99425 159.69832 32301 ft 447 kts 90°
2026-04-30 15:02 6.99439 159.72958 32560 ft 448 kts 90°
2026-04-30 15:03 6.99480 159.82437 33312 ft 454 kts 90°
2026-04-30 15:03 6.99506 159.88814 33787 ft 457 kts 90°
2026-04-30 15:04 6.99532 159.95239 34196 ft 461 kts 90°
2026-04-30 15:04 6.99570 160.04975 34702 ft 467 kts 90°
2026-04-30 15:05 6.99606 160.14765 35533 ft 465 kts 90°
2026-04-30 15:06 6.99628 160.21263 36073 ft 464 kts 90°
2026-04-30 15:06 6.99650 160.27742 36613 ft 462 kts 90°
2026-04-30 15:07 6.99671 160.34206 37142 ft 461 kts 90°
2026-04-30 15:07 6.99691 160.40654 37665 ft 460 kts 90°
2026-04-30 15:08 6.99709 160.47076 38175 ft 458 kts 90°
2026-04-30 15:08 6.99736 160.56688 38794 ft 457 kts 90°
2026-04-30 15:09 6.99752 160.63067 38867 ft 454 kts 90°
2026-04-30 15:10 6.99783 160.75772 38861 ft 453 kts 90°
2026-04-30 15:11 6.99822 160.94759 38860 ft 453 kts 90°
2026-04-30 15:13 6.99849 161.10615 38859 ft 452 kts 90°
2026-04-30 15:14 6.99878 161.32738 38853 ft 452 kts 90°
2026-04-30 15:17 6.99899 161.61279 38855 ft 454 kts 90°
2026-04-30 15:19 6.99904 161.86696 38854 ft 455 kts 90°
2026-04-30 17:39 7.09549 171.32514 2355 ft 216 kts 63°
2026-04-30 17:41 7.16314 171.44943 9259 ft 278 kts 62°
2026-04-30 17:42 7.18248 171.48464 10637 ft 304 kts 62°
2026-04-30 17:42 7.21492 171.54371 12679 ft 330 kts 61°
2026-04-30 17:43 7.23747 171.58477 14148 ft 339 kts 61°
2026-04-30 17:44 7.27224 171.64814 16093 ft 352 kts 61°
2026-04-30 17:44 7.30839 171.71405 17953 ft 364 kts 61°
2026-04-30 17:46 7.37105 171.82833 20499 ft 380 kts 61°
2026-04-30 17:47 7.42306 171.92326 22378 ft 393 kts 61°